Find Starlink 33604

NORAD ID: 63070 Int'l Des: 2025-035 Owner: SPXS Country: US Constellation: starlink operational
LEOCIRCULAR

Live Position

Loading 3D Globe...

About Starlink 33604

Description loading...

Upcoming Passes

Passes for default location (London). Set your location on the main map for personalized predictions.

Altitude History

Loading altitude history...

Two-Line Element Set

1 63070U 25035U 26121.51202906 .00028226 00000-0 10307-2 0 9991
2 63070 43.0013 209.1661 0001546 256.9456 103.1223 15.27598378 67793
Epoch: May 1, 2026 • Age: 5 hours

Current Status

Altitude 483.4 km
Velocity 7.63 km/s
Sub-Earth Point 23.30°N, 118.47°E
Launch Date Feb 21, 2025
Age 1.1 years
Type internet

Technical Details

Classification Payload
Mass 575.00 kg
Dry Mass 530.00 kg
Total Mass 575.00 kg
Length 0.30 m
Diameter 4.10 m
Span 29.00 m
Shape Box + pan
Manufacturer SPXS
Bus Type Starlink V2MO
Phase Status In Orbit
Owner/State SPXS/US

Most Searched